Location: Mahannah Oil Field
(37.4664°N, 96.6003°W)
Time: 02:05:43
(UTC+00:00)

deb Explorer IX - Pass Details

Date: 24 January 2021
Orbit: 537 x 1102 km, 38.8° (Epoch: 25 February)

Event Time Altitude Azimuth Distance (km) Brightness Sun altitude
Rises 04:48:45 0° 284° (WNW) 3,214 - -59.9°
Reaches altitude 10° 04:51:25 10° 279° (W) 2,190 - -60.3°
Maximum altitude 04:56:17 50° 205° (SSW) 815 - -61.2°
Drops below altitude 10° 05:00:30 10° 130° (SE) 1,902 - -61.9°
Sets 05:02:41 0° 124° (SE) 2,749 - -62.2°
